Weather History for Hot Springs, VA

Change the Weather History Date:

Tuesday, January 7, 2014

  Actual Average Record
Temperature  
Mean Temperature -6 °F -  
Max Temperature 3 °F 34 °F 60 °F (1998)
Min Temperature -14 °F 21 °F -14 °F (2014)
Degree Days  
Heating Degree Days 70    
Moisture  
Dew Point -14 °F    
Average Humidity 67    
Maximum Humidity 84    
Minimum Humidity 55    
Precipitation  
Precipitation 0.00 in - - ()
Sea Level Pressure  
Sea Level Pressure 30.00 in    
Wind  
Wind Speed 26 mph (West)    
Max Wind Speed 34 mph    
Max Gust Speed 46 mph    
Visibility 10 miles    
Events      
Averages and records for this station are not official NWS values.
T = Trace of Precipitation, MM = Missing Value Source: NWS Daily Summary

Daily Weather History Graph

Daily Weather History Graph

Search for Another Location

Airport:

Trip Planner

Search our weather history database for the weather conditions in past years. The results will help you decide how hot, cold, wet, or windy it might be!

Date:

Astronomy

Jan. 07, 2014 Rise Set
Actual Time 7:35 AM EST 5:16 PM EST
Civil Twilight 7:06 AM EST 5:45 PM EST
Nautical Twilight 6:33 AM EST 6:17 PM EST
Astronomical Twilight 6:01 AM EST 6:49 PM EST
Moon 11:30 AM EST (1/7) No Moon Set
Length of Visible Light 10h 38m
Length of Day
9h 40m
Waxing Crescent, 45% of the Moon is Illuminated
Jan 7
Waxing Crescent
Jan 7
First Quarter
Jan 15
Full
Jan 24
Last Quarter
Jan 30
New

Hourly Weather History & Observations

Time (EST) Temp. Windchill Dew Point Humidity Pressure Visibility Wind Dir Wind Speed Gust Speed Precip Events Conditions
12:15 AM -11.2 °F -41.9 °F -18.4 °F 70% 29.77 in 10.0 mi West 32.2 mph 41.4 mph N/A   Scattered Clouds
12:35 AM -11.2 °F -39.7 °F -18.4 °F 70% 29.78 in 10.0 mi West 26.5 mph 42.6 mph N/A   Scattered Clouds
12:55 AM -11.2 °F -40.1 °F -18.4 °F 70% 29.79 in 10.0 mi West 27.6 mph 39.1 mph N/A   Scattered Clouds
1:15 AM -11.2 °F -41.5 °F -18.4 °F 70% 29.79 in 10.0 mi WNW 31.1 mph 40.3 mph N/A   Scattered Clouds
1:35 AM -11.2 °F -42.3 °F -18.4 °F 70% 29.79 in 10.0 mi West 33.4 mph 46.0 mph N/A   Clear
1:55 AM -11.2 °F -42.6 °F -18.4 °F 70% 29.79 in 10.0 mi West 34.5 mph 41.4 mph N/A   Scattered Clouds
2:15 AM -11.2 °F -42.3 °F -18.4 °F 70% 29.80 in 10.0 mi West 33.4 mph 46.0 mph N/A   Scattered Clouds
2:35 AM -11.2 °F -42.3 °F -18.4 °F 70% 29.82 in 10.0 mi West 33.4 mph 43.7 mph N/A   Clear
2:55 AM -11.2 °F -41.0 °F -18.4 °F 70% 29.82 in 10.0 mi WNW 29.9 mph 36.8 mph N/A   Scattered Clouds
3:15 AM -11.2 °F -39.7 °F -18.4 °F 70% 29.84 in 10.0 mi WNW 26.5 mph 39.1 mph N/A   Scattered Clouds
3:35 AM -11.2 °F -40.1 °F -18.4 °F 70% 29.84 in 10.0 mi West 27.6 mph 40.3 mph N/A   Scattered Clouds
3:55 AM -11.2 °F -40.1 °F -18.4 °F 70% 29.85 in 10.0 mi West 27.6 mph 40.3 mph N/A   Clear
4:15 AM -13.0 °F -43.0 °F -18.4 °F 77% 29.86 in 10.0 mi West 28.8 mph 35.7 mph N/A   Clear
4:35 AM -13.0 °F -42.1 °F -18.4 °F 77% 29.87 in 10.0 mi West 26.5 mph 34.5 mph N/A   Scattered Clouds
4:55 AM -13.0 °F -41.1 °F -18.4 °F 77% 29.87 in 10.0 mi West 24.2 mph 36.8 mph N/A   Scattered Clouds
5:15 AM -13.0 °F -41.6 °F -16.6 °F 84% 29.87 in 10.0 mi West 25.3 mph 35.7 mph N/A   Scattered Clouds
5:35 AM -13.0 °F -41.1 °F -16.6 °F 84% 29.87 in 10.0 mi West 24.2 mph 32.2 mph N/A   Clear
5:55 AM -14.8 °F -43.5 °F -18.4 °F 84% 29.88 in 10.0 mi West 24.2 mph 33.4 mph N/A   Clear
6:15 AM -14.8 °F -43.5 °F -18.4 °F 84% 29.88 in 10.0 mi West 24.2 mph 34.5 mph N/A   Clear
6:35 AM -14.8 °F -41.8 °F -18.4 °F 84% 29.89 in 10.0 mi West 20.7 mph 29.9 mph N/A   Clear
6:55 AM -14.8 °F -42.4 °F -18.4 °F 84% 29.89 in 10.0 mi West 21.9 mph 28.8 mph N/A   Clear
7:15 AM -14.8 °F -44.5 °F -18.4 °F 84% 29.92 in 10.0 mi West 26.5 mph 35.7 mph N/A   Clear
7:35 AM -14.8 °F -44.5 °F -18.4 °F 84% 29.93 in 10.0 mi West 26.5 mph 33.4 mph N/A   Clear
7:55 AM -13.0 °F -41.6 °F -18.4 °F 77% 29.94 in 10.0 mi West 25.3 mph 34.5 mph N/A   Clear
8:15 AM -13.0 °F -42.6 °F -18.4 °F 77% 29.93 in 10.0 mi West 27.6 mph 33.4 mph N/A   Clear
8:35 AM -13.0 °F -42.6 °F -18.4 °F 77% 29.94 in 10.0 mi West 27.6 mph 34.5 mph N/A   Clear
8:55 AM -11.2 °F -39.2 °F -16.6 °F 77% 29.95 in 10.0 mi West 25.3 mph 35.7 mph N/A   Clear
9:15 AM -11.2 °F -39.7 °F -16.6 °F 77% 29.99 in 10.0 mi West 26.5 mph 35.7 mph N/A   Clear
9:35 AM -9.4 °F -36.8 °F -16.6 °F 71% 29.99 in 10.0 mi West 25.3 mph 34.5 mph N/A   Clear
9:55 AM -9.4 °F -37.3 °F -16.6 °F 71% 30.01 in 10.0 mi WNW 26.5 mph 39.1 mph N/A   Clear
10:15 AM -7.6 °F -34.8 °F -14.8 °F 71% 30.02 in 10.0 mi West 26.5 mph 34.5 mph N/A   Clear
10:35 AM -7.6 °F -32.9 °F -14.8 °F 71% 30.03 in 10.0 mi West 21.9 mph 31.1 mph N/A   Clear
10:55 AM -5.8 °F -30.5 °F -14.8 °F 65% 30.04 in 10.0 mi West 21.9 mph 29.9 mph N/A   Clear
11:15 AM -5.8 °F -31.0 °F -14.8 °F 65% 30.06 in 10.0 mi West 23.0 mph 29.9 mph N/A   Clear
11:35 AM -4.0 °F -29.1 °F -13.0 °F 65% 30.05 in 10.0 mi West 24.2 mph 31.1 mph N/A   Clear
11:55 AM -2.2 °F -25.7 °F -14.8 °F 55% 30.04 in 10.0 mi West 21.9 mph 39.1 mph N/A   Clear
12:15 PM -2.2 °F -26.2 °F -11.2 °F 66% 30.05 in 10.0 mi West 23.0 mph 27.6 mph N/A   Clear
12:35 PM -0.4 °F -23.3 °F -11.2 °F 60% 30.05 in 10.0 mi West 21.9 mph 27.6 mph N/A   Clear
12:55 PM -0.4 °F -23.3 °F -11.2 °F 60% 30.04 in 10.0 mi West 21.9 mph 27.6 mph N/A   Clear
1:15 PM -0.4 °F -21.7 °F -11.2 °F 60% 30.03 in 10.0 mi WNW 18.4 mph 26.5 mph N/A   Clear
1:35 PM 1.4 °F -19.4 °F -9.4 °F 61% 30.04 in 10.0 mi West 18.4 mph 26.5 mph N/A   Clear
1:55 PM 1.4 °F -21.9 °F -11.2 °F 56% 30.03 in 10.0 mi West 24.2 mph 28.8 mph N/A   Unknown
2:15 PM 1.4 °F -19.9 °F -11.2 °F 56% 30.03 in 10.0 mi West 19.6 mph 27.6 mph N/A   Clear
2:35 PM 1.4 °F -19.9 °F -11.2 °F 56% 30.04 in 10.0 mi West 19.6 mph 26.5 mph N/A   Clear
2:55 PM 1.4 °F -20.5 °F -11.2 °F 56% 30.04 in 10.0 mi West 20.7 mph 27.6 mph N/A   Clear
3:15 PM 3.2 °F -18.6 °F -9.4 °F 56% 30.04 in 10.0 mi West 21.9 mph 28.8 mph N/A   Clear
3:35 PM 3.2 °F -16.5 °F -9.4 °F 56% 30.05 in 10.0 mi West 17.3 mph 26.5 mph N/A   Clear
3:55 PM 3.2 °F -15.3 °F -9.4 °F 56% 30.07 in 10.0 mi West 15.0 mph 26.5 mph N/A   Clear
4:15 PM 3.2 °F -17.1 °F -9.4 °F 56% 30.08 in 10.0 mi West 18.4 mph 23.0 mph N/A   Clear
4:35 PM 3.2 °F -17.6 °F -9.4 °F 56% 30.08 in 10.0 mi West 19.6 mph 25.3 mph N/A   Clear
4:55 PM 3.2 °F -15.9 °F -9.4 °F 56% 30.08 in 10.0 mi West 16.1 mph 21.9 mph N/A   Clear
5:15 PM 1.4 °F -21.0 °F -11.2 °F 56% 30.09 in 10.0 mi West 21.9 mph 26.5 mph N/A   Clear
5:35 PM 1.4 °F -19.4 °F -11.2 °F 56% 30.10 in 10.0 mi West 18.4 mph 23.0 mph N/A   Clear
5:55 PM 1.4 °F -21.4 °F -11.2 °F 56% 30.10 in 10.0 mi West 23.0 mph 27.6 mph N/A   Clear
6:15 PM 1.4 °F -20.5 °F -11.2 °F 56% 30.10 in 10.0 mi West 20.7 mph 27.6 mph N/A   Clear
6:35 PM 1.4 °F -20.5 °F -11.2 °F 56% 30.11 in 10.0 mi West 20.7 mph 27.6 mph N/A   Clear
6:55 PM 1.4 °F -19.9 °F -11.2 °F 56% 30.11 in 10.0 mi West 19.6 mph 28.8 mph N/A   Clear
7:15 PM 1.4 °F -19.9 °F -11.2 °F 56% 30.12 in 10.0 mi West 19.6 mph 25.3 mph N/A   Clear
7:35 PM -0.4 °F -21.7 °F -9.4 °F 66% 30.12 in 10.0 mi West 18.4 mph 25.3 mph N/A   Clear
7:55 PM -0.4 °F -21.2 °F -9.4 °F 66% 30.13 in 10.0 mi West 17.3 mph 25.3 mph N/A   Clear
8:15 PM -0.4 °F -21.2 °F -9.4 °F 66% 30.13 in 10.0 mi West 17.3 mph 23.0 mph N/A   Clear
8:35 PM -0.4 °F -21.7 °F -9.4 °F 66% 30.13 in 10.0 mi West 18.4 mph 23.0 mph N/A   Clear
8:55 PM -0.4 °F -22.3 °F -9.4 °F 66% 30.14 in 10.0 mi West 19.6 mph - N/A   Clear
9:15 PM -0.4 °F -21.2 °F -9.4 °F 66% 30.14 in 10.0 mi West 17.3 mph - N/A   Clear
9:35 PM -0.4 °F -24.3 °F -9.4 °F 66% 30.15 in 10.0 mi West 24.2 mph 29.9 mph N/A   Clear
9:55 PM 1.4 °F -20.5 °F -9.4 °F 61% 30.16 in 10.0 mi West 20.7 mph 28.8 mph N/A   Clear
10:15 PM 1.4 °F -19.4 °F -7.6 °F 66% 30.16 in 10.0 mi West 18.4 mph 23.0 mph N/A   Clear
10:35 PM 1.4 °F -18.8 °F -7.6 °F 66% 30.16 in 10.0 mi West 17.3 mph 25.3 mph N/A   Clear
10:55 PM 1.4 °F -18.8 °F -7.6 °F 66% 30.16 in 10.0 mi West 17.3 mph 27.6 mph N/A   Clear
11:15 PM 1.4 °F -19.4 °F -7.6 °F 66% 30.16 in 10.0 mi West 18.4 mph 25.3 mph N/A   Clear
11:35 PM 1.4 °F -18.8 °F -7.6 °F 66% 30.16 in 10.0 mi West 17.3 mph - N/A   Clear
11:55 PM 1.4 °F -18.2 °F -7.6 °F 66% 30.16 in 10.0 mi West 16.1 mph 21.9 mph N/A   Clear